Flag for Germany Weather past 2 weeks in Gotha, Thuringia, Germany

Now
88 °F

Overcast.


Feels Like: 86 °F
Forecast: 59 / 79 °F
Wind: 6 mph from West

Location: Erfurt-Bindersleben

Current Time: Aug 4, 2015 at 4:25:26 PM

Latest Report: Aug 4, 2015 at 4:00 PM


Visibility: 47 mi

Pressure: 29.81 "Hg

Humidity: 30%

Dew point: 53 °F

Location of GothaLocation

Historic Weather in Gotha — Graph

°F

Gotha temperature yesterday

Maximum temperature yesterday: 87 °F (at 4:00 PM)
Minimum temperature yesterday: 57 °F (at 7:00 AM)
Average temperature yesterday: 74 °F

Past Weeks' High & Low Weather Summary

 TemperatureHumidityPressure
High89 °F (Aug 4, 3:00 PM)97% (Jul 31, 7:00 AM)30.14 "Hg (Jul 31, 7:00 AM)
Low46 °F (Jul 31, 4:00 AM)26% (Aug 2, 4:00 PM)29.60 "Hg (Jul 25, 6:00 AM)
Average66 °F62%29.90 "Hg
* Reported Jul 20 3:00 PM — Aug 4 3:00 PM, Gotha, Weather by CustomWeather, © 2015

Note: Actual official high and low records may vary slightly from our data, if they occured in-between our weather recording intervals... More about our weather records

Advertising

Gotha weather history for previous 24 hours

 ConditionsComfort  
Time TempWeatherWind HumidityBarometerVisibility
3:00 PM
Tue, Aug 4
89 °FOvercast.6 mph28%29.81 "Hg47 mi
2:00 PM88 °FPartly sunny.1 mph27%29.83 "Hg47 mi
1:00 PM87 °FScattered clouds.5 mph31%29.84 "Hg47 mi
12:00 PM86 °FScattered clouds.6 mph31%29.85 "Hg47 mi
11:00 AM84 °FScattered clouds.5 mph39%29.87 "Hg47 mi
10:00 AM81 °FScattered clouds.5 mph46%29.89 "Hg47 mi
9:00 AM77 °FScattered clouds.5 mph51%29.90 "Hg47 mi
8:00 AM73 °FScattered clouds.3 mph58%29.93 "Hg37 mi
7:00 AM69 °FScattered clouds.3 mph63%29.94 "Hg37 mi
6:00 AM69 °FScattered clouds.5 mph63%29.93 "Hg28 mi
5:00 AM69 °FPassing clouds.5 mph62%29.95 "Hg22 mi
4:00 AM70 °FPassing clouds.5 mph61%29.96 "Hg25 mi
3:00 AM71 °FPassing clouds.6 mph58%29.97 "Hg28 mi
2:00 AM72 °FPassing clouds.6 mph54%29.97 "Hg31 mi
1:00 AM72 °FPassing clouds.5 mph54%29.97 "Hg31 mi
11:00 PM
Mon, Aug 3
75 °FPassing clouds.3 mph50%29.98 "Hg31 mi
10:00 PM77 °FPassing clouds.3 mph46%29.97 "Hg37 mi
9:00 PM79 °FPassing clouds.2 mph43%29.96 "Hg37 mi
8:00 PM83 °FScattered clouds.3 mph36%29.95 "Hg43 mi
7:00 PM85 °FPassing clouds.2 mph30%29.95 "Hg43 mi
6:00 PM87 °FPassing clouds.3 mph28%29.96 "Hg43 mi
5:00 PM86 °FPassing clouds.3 mph28%29.98 "Hg43 mi
4:00 PM87 °FPassing clouds.3 mph28%29.98 "Hg43 mi
Weather by CustomWeather, © 2015

See weather overviewHow to use our weather pages